カタログに戻る

USA 21

LostナビゲーションHEO
NORAD 17506·PAYLOAD·🇺🇸 United States

打ち上げ Feb 12, 1987 から Vandenberg Space Force Base

Loading…

次のパス (今後24時間)

TLE

古いSource: Space-Track

元期: Feb 14, 2026, 03:28 UTC

1 17506U 87015A   26045.14445650 -.00000778  00000-0 -21159-2 0  9990
2 17506  62.9671 273.1681 7275603 278.0632  12.4511  2.01482512 42766

AllMySatでUSA 21をリアルタイム追跡

Download on the App Store